User: anonymous   Login
Location: Mentone
(34.5413°N, 85.5351°W)
Time: 05:09:00
(UTC-05:00)
Language:

Centaur AC-72 - Orbit

View from above orbital plane
View from above orbital plane
View from above satellite
View from above satellite

Ground track
Ground track

The orbit data is extracted from the following two-line orbital elements,

1 21907U 92013B   16272.20607580 -.00000252  00000-0  00000+0 0  9999
2 21907  19.6239 353.1213 6956087 359.2340   4.9348  2.25603845202362
Epoch (UTC): 28 September 2016 04:56:44
Eccentricity: 0.6956087
inclination: 19.6239°
perigee height: 1097 km
apogee height: 35260 km
right ascension of ascending node: 353.1213°
argument of perigee: 359.2340°
revolutions per day: 2.25603845
mean anomaly at epoch: 4.9348°
orbit number at epoch: 20236

The dashed part of the orbit path shows where the satellite is in the earth's shadow,  

DLR